Regional Weather Roundup
Issued by NWS

Home | Current Version | Previous Version | Graphics & Text | Print | Product List | Glossary On
Versions: 1 2 3 4 5 6 7 8 9 10 11 12 13 14 15 16 17 18 19 20 21 22 23 24 25 26 27 28 29 30 31 32 33 34 35 36 37 38 39 40 41 42 43 44 45 46 47 48 49 50
044
ASUS43 KDMX 191906
RWRIA

WEATHER ROUNDUP FOR IOWA
NATIONAL WEATHER SERVICE DES MOINES IA
100 PM CST THU JAN 19 2017

NOTE: "FAIR" INDICATES FEW OR NO CLOUDS BELOW 12,000 FEET WITH NO
SIGNIFICANT WEATHER AND/OR OBSTRUCTIONS TO VISIBILITY.

* - THESE STATIONS ARE NOT NWS STATIONS...THUS NOT UNDER NWS
QUALITY CONTROL.  THEY ALSO DO NOT REPORT WEATHER SUCH
AS PRECIPITATION OR FOG.

IAZ001>003-012>014-020>022-031>034-043>046-192000-
   NORTHWEST IOWA

CITY           SKY/WX    TMP DP  RH WIND       PRES   REMARKS
CARROLL *      PTSUNNY   37  37 100 SE8       29.73F FOG     WCI  31
CHEROKEE *     CLOUDY    39  39  97 SE8       29.71F FOG     WCI  34
DENISON *      CLOUDY    41  39  93 SE6       29.69F FOG
LE MARS *      CLOUDY    41  39  93 SE9       29.70F FOG
ORANGE CITY *  CLOUDY    37  37 100 S10       29.68F FOG     WCI  30
SHELDON *      CLOUDY    39  39 100 S13       29.67F FOG     WCI  32
SIOUX CITY     FOG       40  38  93 SE9       29.70F VSB 1   WCI  34
SPENCER        CLOUDY    37  36  96 SE14      29.72F FOG     WCI  28
STORM LAKE *   CLOUDY    37  36  93 SE8       29.72F FOG     WCI  31
$$

IAZ055>058-069>071-079>083-090>094-192000-
   SOUTHWEST IOWA

CITY           SKY/WX    TMP DP  RH WIND       PRES   REMARKS
ATLANTIC *     CLOUDY    39  39 100 CALM      29.72F FOG
CLARINDA *     CLOUDY    43  43 100 CALM      29.74F FOG
COUNCIL BLFS * PTSUNNY   41  41 100 SE8       29.70F
CRESTON *      MIX PCPN  41  41 100 SE8       29.74F VSB<1/4
HARLAN  *      CLOUDY    41  41 100 S7        29.75F FOG
LAMONI         FOG       42  42 100 SE5       29.73F VSB 1/4
RED OAK *      CLOUDY    43  43 100 S6        29.72F FOG
SHENANDOAH *   CLOUDY    45  43  93 SE7       29.73F FOG
$$

IAZ047>049-059>061-072>074-084-192000-
   CENTRAL IOWA

CITY           SKY/WX    TMP DP  RH WIND       PRES   REMARKS
AMES           CLOUDY    38  38 100 E6        29.76F FOG     WCI  33
ANKENY *       CLOUDY    37  37 100 E5        29.77F FOG     WCI  34
BOONE *        CLOUDY    37  37 100 E5        29.74F FOG     WCI  34
CHARITON *     PTSUNNY   39  39 100 E7        29.75F FOG     WCI  34
DES MOINES     DRZL/FOG  39  37  92 SE6       29.76F VSB 1   WCI  35
GRINNELL*      LGT SNOW  35  34  98 E8        29.80F VSB 3/4 WCI  28
KNOXVILLE *    FOG       36  36 100 E3        29.76F VSB 3/4
MARSHALLTOWN   CLOUDY    36  36 100 E8        29.78F FOG     WCI  30
NEWTON *       FOG       36  36 100 E14       29.77F VSB 1/2 WCI  27
PELLA *        RAIN      36  35  99 E7        29.79F WCI  30
PERRY *        CLOUDY    40  39  96 E5        29.74F FOG
$$

IAZ004>006-015-016-023>025-035-036-192000-
   NORTH CENTRAL IOWA

CITY           SKY/WX    TMP DP  RH WIND       PRES   REMARKS
ALGONA *       CLOUDY    37  37 100 SE14      29.75F WCI  29
CLARION *      CLOUDY    37  37 100 SE9       29.76F WCI  31
ESTHERVILLE    CLOUDY    35  35 100 S14       29.73F FOG     WCI  26
FORT DODGE *   CLOUDY    39  34  81 SE6       29.76F WCI  35
MASON CITY     CLOUDY    32  31  96 SE10      29.79F FOG     WCI  24
FOREST CITY *  CLOUDY    34  34 100 SE8       29.78F WCI  27
WEBSTER CITY * CLOUDY    36  36 100 SE8       29.74F FOG     WCI  29
IOWA FALLS *   CLOUDY    36  35  97 SE8       29.79F FOG     WCI  29
$$

IAZ007>011-017>019-026>030-037>042-050>054-066-192000-
   NORTHEAST IOWA

CITY           SKY/WX    TMP DP  RH WIND       PRES   REMARKS
CEDAR RAPIDS   LGT RAIN  36  35  96 SE7       29.82F FOG     WCI  30
CHARLES CITY * CLOUDY    34  34 100 E8        29.81F FOG     WCI  27
CLINTON *      CLOUDY    40  39  97 E9        29.86F FOG     WCI  34
DECORAH *      CLOUDY    32  32 100 SE8G14    29.83F FOG     WCI  25
DUBUQUE        CLOUDY    37  35  92 SE5       29.84F FOG     WCI  33
MONTICELLO *   CLOUDY    39  37  93 SE5       29.83F FOG
OELWEIN *      CLOUDY    34  34 100 E7        29.82F FOG     WCI  28
WATERLOO       LGT RAIN  36  34  92 S5        29.81F FOG     WCI  32
$$

IAZ064-065-067-068-078-192000-
   EAST CENTRAL IOWA

CITY           SKY/WX    TMP DP  RH WIND       PRES   REMARKS
DAVENPORT      LGT RAIN  39  36  89 SE9       29.85F FOG     WCI  33
IOWA CITY      LGT RAIN  38  36  92 E7        29.86F FOG     WCI  33
MUSCATINE *    CLOUDY    39  37  93 CALM      29.85F FOG
QUAD CITIES    CLOUDY    41  36  82 SE9       29.85F HAZE
$$

IAZ062-063-075>077-085>089-095>099-192000-
   SOUTHEAST IOWA

CITY           SKY/WX    TMP DP  RH WIND       PRES   REMARKS
BURLINGTON     FOG       39  39 100 E8        29.81F VSB 1   WCI  33
FAIRFIELD *    FOG       39  39 100 E8        29.79F VSB 1/2 WCI  34
FORT MADISON * FOG       39  39 100 E6        29.82F VSB 1   WCI  35
KEOKUK *       FOG       41  41 100 E7        29.79F VSB 1
OSKALOOSA *    DRZL/FOG  36  36  99 E8        29.79F VSB 3/4 WCI  30
OTTUMWA        FOG       39  37  92 E8        29.78F VSB 1   WCI  33
WASHINGTON *   LGT RAIN  37  37 100 E7        29.82F VSB 1/2 WCI  32
$$

ABBREVIATIONS USED IN REMARKS
   TC - TEMPERATURES IN CELSIUS
  WCI - WIND CHILL INDEX
   HX - HEAT INDEX
  VSB - VISIBILITY
$$





USA.gov is the U.S. government's official web portal to all federal, state and local government web resources and services.